Погода в Вязьме

Поиск расширенной информации на нашем сайте:

Полезная информация:

Новости сайта



14.11.2019
Обновлён Долгосрочный прогноз погоды по России и другим странам хСССР на ноябрь-декабрь 2019 года.
Опубликованы прогностические карты: Предварительный прогноз на декабрь 2019 года, Предварительный прогноз на январь 2020 года, Предварительная схема синоптических процессов на декабрь 2019 г..

11.11.2019
Обновлены Долгосрочный прогноз погоды по России и другим странам хСССР на ноябрь-декабрь 2019 года и Предварительный прогноз на зиму 2019/2020 годов

04.11.2019
Опубликован Долгосрочный прогноз погоды по России и другим странам хСССР на ноябрь 2019 года
Сравнение прогнозируемой аномалии приземной температуры воздуха на ноябрь 2019 года по разным моделям
Предварительный прогноз на зиму 2019/2020 года




Погода в Вязьме - сегодня

Время (UTC), дата Ветер
(°,м/с) 
Видим.   Явления Облачность Т
(°С)
Тd
(°С)
f(%) Тe
(°С)
Pmin
(гПа)
dP
(гПа)
Po
(мм)
O2
(г/м3)
Тmin Tmax R s Состояние
почвы
21 17.11.19 200 (Ю) 1000 м  дымка  10/10 100 м 
[St]
+4.8 +4.3 97 +4  1029.2  749  296           
00 18.11.19 210 (ЮЗ) 0500 м  туман  ?/?  
+4.1 +3.8 98 +4  1029.1  749  297           
03 18.11.19 180 (Ю) 0500 м  туман  ?/?  
+3.6 +3.2 97 +3  1028.9  -0.3  749  297  +3.6         
06 18.11.19 150 (ЮВ) 0200 м  туман  ?/?  
+3.1 +2.8 98 +3  1029.3  0.3  749  298  +3.1         
09 18.11.19 160 (Ю) 1000 м  дымка{туман}  10/10 100 м 
[St]
+3.7 +3.3 97 +3  1029.4  0.2  749  297           
12 18.11.19 170 (Ю) 0050 м  туман  ?/?  
+3.4 +3.1 98 +3  1028.9  -0.6  749  297           
15 18.11.19 120 (ЮВ) 0050 м  туман  ?/?  
+3.3 +2.9 97 +4  1029.1  0.2  749  298           
18 18.11.19 110 (В) 4000 м  дымка{туман}  10/10 300 м 
[St]
+2.3 +2 98 +3  1029  -0.3  749  299    +4       
21 18.11.19 120 (ЮВ) 4000 м  дымка  10/10 300 м 
[St]
+1.3 +1 98 1029.6  0.5  749  300           
00 19.11.19 120 (ЮВ) 2000 м  дымка  10/10 200 м 
[St]
-0.5 -0.7 99 -2  1030.2  0.4  749  302           
03 19.11.19 130 (ЮВ) 0500 м    ?/?  
-1.4 -1.6 99 -2  1030.3  749  304  -1.4         
06 19.11.19 160 (Ю) 0500 м  туман  ?/?  
-1.3 -1.4 99 -3  1031.1  0.8  750  304  -1.5         
09 19.11.19 180 (Ю) 4000 м  слаб. снег{туман}  10/8 200 м средняя 
[Frnb|As op]
-0.5 -0.7 99 -1  1031.8  0.8  750  303           
12 19.11.19 140 (ЮВ) 4000 м  в посл. час снег{туман}  9/9 300 м 
[Sc]
-0.1 -0.3 99 -1  1031.6  -0.2  750  302           
15 19.11.19 160 (Ю) 4000 м  дымка{ливн. осадки}  10/10 300 м 
[Sc]
-0.3 -0.5 99 1032.4  0.8  751  303         
18 19.11.19 110 (В) 4000 м  дымка{ливн. осадки}  10/10 300 м 
[Sc]
-0.2 -0.4 99 1033.1  0.6  751  303    -0.1     
21 19.11.19 130 (ЮВ) 4000 м  слаб. снег  10/8 300 м средняя 
[Frnb|As op]
-0.1 -0.3 99 +1  1034  0.9  752  303           
00 20.11.19 130 (ЮВ) 4000 м  слаб. дождь{снег}  10/8 200 м средняя 
[Frnb|As op]
+0.1 -0.1 99 +1  1034.6  0.6  752  303           
03 20.11.19 110 (В) 4000 м  слаб. дождь  10/8 200 м средняя 
[Frnb|As op]
+1 +0.8 99 1035.2  0.7  753  302  -0.4       
06 20.11.19 110 (В) 0500 м  слаб. морось{дождь}  ?/?  
+2.2 +1.9 98 +2  1036.3  1.2  754  301  -0.4       
09 20.11.19 120 (ЮВ) 4000 м  слаб. морось{туман}  10/10 200 м 
[St]
+3.2 +2.9 98 +2  1037.6  1.4  755  300           
12 20.11.19 120 (ЮВ) 4000 м  дымка{морось, туман}  10/10 300 м 
[St]
+3.8 +3.5 98 +3  1038.7  1.1  756  300           
15 20.11.19 110 (В) 4000 м  дымка  10/10 300 м 
[St]
+3.1 +2.1 93 +2  1039.9  1.1  757  301      0.0     
18 20.11.19 120 (ЮВ) 4000 м  дымка  10/10 300 м 
[St]
+1.3 +0.4 94 -1  1041.5  1.4  758  304    +3.8  0.0     
21 20.11.19 120 (ЮВ) 4000 м  дымка  10/10 300 м 
[St]
-0.1 -1.3 92 -2  1043  1.3  759  306           
Время (UTC), дата Ветер
(°,м/с) 
Видим.   Явления Облачность Т
(°С)
Тd
(°С)
f(%) Тe
(°С)
Pmin
(гПа)
dP
(гПа)
Po
(мм)
O2
(г/м3)
Тmin Tmax R s Состояние
почвы

Для получения пояснительной информации подведите курсор к названию столбца.

ПОГОДА в Вязьме - архив

Всё, что Вы хотите узнать о погоде в Вязьме - удобно и подробно!

Выберите нужную дату (начиная с 1 января 2019* года) и нажмите кнопку "Найти".
Будут отображены архивные сводки погоды по пункту Вязьма, начиная с указанной даты.


Отображать данные в формате CSV (для использования в таблицах Excel)


Внимание! Наш архив погоды предназначен исключительно для личного некоммерческого использования в познавательных целях. Если Вам необходимы официальные справки о состоянии погоды (для производственных, юридических, коммерческих и т.п. целей), обращайтесь в органы Росгидромета.

*Примечание: данная дата относится к архиву по метеостанциям СССР (Россия, СНГ, Балтия).
Архив по метеостанциям Зарубежной Европы и Азии (кроме Китая) хранится 10 дней, по другим регионам земного шара (Китай, Африка, Америка, Австралия, Океания) - 1 день.

Вязьма - район местоположения метеостанции


Название, широта, долгота, высота метеостанции:
Вязьма 55.2°ш. 34.4°д. 251 м над ур. моря [Российская Федерация]

Дополнительная информация

В oтличие oт бoльшинства пoгoдных сайтoв мы публикуем пoдрoбную метеoинфoрмацию в детальнoм прoфессиoнальнoм фoрмате.

Характеристики температуры и влажнoсти вoздуха измеряются на высoте 2 м в тени вдали oт зданий и деревьев.
Скoрoсть ветра измеряется на высoте 10 м (на урoвне рoста челoвека скoрoсть ветра ниже в 1.5-2 раза). Если метеoстанция нахoдится в гoрoде или в лесу, тo скoрoсть ветра занижена на 2-4 м/с пo сравнению с oткрытым местoм. Скoрoсть ветра над акватoриями крупных рек и oзёр, а также на вершинах хoлмoв на 2-5 м/с выше, чем в oбычных услoвиях.
Атмoсфернoе давление в разных тoчках местнoсти мoжет значительнo oтличаться oт давления на метеoстанции, в зависимoсти oт услoвий рельефа (при пoдъёме на 10 м давление пoнижается примернo на 1 мм рт.ст.).